Theta_e
356 353 352 354 353 351 348 341 342 342 341 339 338 337 337 337 340 340 340 334 332 333 331 329 328 329 326 325 324 322 321 319 315 317 320 326 330 330 329 330 327 328 325
348 353 350 351 351 341 343 342 335 334 343 340 339 336 335 334 338 336 335 331 330 330 331 330 327 326 329 329 323 327 323 324 318 320 322 320 326 330 331 327 324 323 325
343 345 347 349 343 338 334 334 333 334 335 337 336 333 333 336 335 336 332 329 330 330 330 329 327 327 326 324 323 321 320 319 320 317 316 320 322 324 325 327 325 325 325
342 341 345 344 336 334 333 334 336 333 334 335 335 334 335 335 336 336 333 333 332 330 331 330 328 326 325 323 321 321 321 318 318 314 315 316 319 325 323 319 317 318 317
341 340 342 340 334 334 335 330 337 335 333 333 334 335 337 336 333 338 336 334 333 332 331 329 328 321 316 315 314 316 317 314 312 312 312 314 315 317 316 317 314 314 316
334 337 339 338 336 333 334 331 338 338 336 333 332 332 334 333 316 318 332 336 333 331 329 328 328 321 317 312 311 311 312 313 312 311 312 313 316 316 316 314 313 311 309
333 334 334 337 333 331 332 333 334 339 339 335 334 332 332 334 309 311 316 335 333 330 328 327 325 322 319 320 312 310 309 308 307 314 313 313 314 316 313 312 313 312 312
330 329 329 332 333 332 331 331 331 339 340 335 337 336 334 328 305 305 309 330 329 328 328 326 325 323 320 317 317 315 315 317 318 316 317 317 316 314 313 313 313 312 314
326 324 327 329 331 332 330 330 331 338 338 337 338 338 338 318 302 302 310 325 326 326 325 324 322 321 305 302 312 312 314 315 312 307 306 304 302 301 303 309 307 309 309
323 321 324 325 331 331 331 329 328 340 337 335 337 340 327 321 300 300 307 322 324 321 324 323 309 313 303 300 311 312 311 313 314 315 314 312 307 309 303 308 310 308 309
326 326 317 321 333 333 333 335 329 335 336 336 336 339 334 320 308 299 303 318 317 317 316 315 316 302 299 298 297 310 309 309 308 308 308 310 313 316 316 314 314 311 310
324 323 319 311 317 328 331 334 332 331 332 334 331 328 328 322 304 299 300 296 302 310 311 313 312 296 296 296 297 299 297 298 306 305 306 308 311 313 315 317 319 317 316
321 319 318 313 310 310 309 311 321 325 326 325 325 323 322 320 313 299 300 297 297 307 312 307 298 297 297 300 297 297 296 306 306 304 306 309 312 315 315 314 315 316 315
318 318 317 314 309 310 308 307 306 303 310 320 320 320 319 318 317 311 311 307 299 301 307 310 305 300 298 303 302 307 311 311 309 309 310 312 313 311 308 308 305 306 305
317 316 315 315 310 306 305 302 303 299 296 294 306 316 314 313 304 299 302 307 306 300 299 306 307 309 310 312 314 315 314 316 313 311 309 307 306 305 304 304 302 301 299
316 315 314 313 308 310 306 298 294 295 294 293 293 296 302 296 293 293 293 292 292 291 301 304 306 308 310 312 311 311 311 307 307 306 305 305 303 302 301 301 301 299 298
314 315 312 311 311 307 304 303 296 296 296 295 296 295 294 293 292 292 293 292 291 291 302 306 308 310 311 310 309 306 304 304 305 304 302 301 300 300 298 299 299 299 298
314 304 314 311 311 309 308 307 308 303 301 299 294 296 294 293 293 292 292 292 304 300 306 308 309 309 308 305 304 303 302 302 301 299 298 298 298 298 297 297 299 298 298
311 311 308 310 306 303 304 305 306 307 306 306 306 295 295 292 292 291 291 304 306 306 306 305 306 303 303 303 302 300 300 298 297 296 296 296 296 296 296 297 298 293 295
310 304 306 310 307 307 306 307 304 304 307 307 305 305 305 301 303 305 305 306 303 302 302 301 301 301 301 300 298 299 297 296 295 295 295 296 296 297 296 296 297 297 298
310 309 295 310 308 306 307 307 305 304 304 305 306 298 286 302 303 304 304 303 302 301 300 299 298 298 298 298 297 296 296 295 296 296 296 296 296 296 297 297 297 297 299
309 309 309 307 308 307 307 306 305 302 302 303 304 300 287 305 304 304 302 301 300 299 300 298 297 297 297 296 296 296 295 295 295 296 296 296 297 298 297 297 297 297 298
307 306 306 305 305 296 304 305 305 305 304 304 303 303 304 304 303 300 298 298 298 299 299 299 299 296 296 296 297 297 295 295 296 297 296 298 298 299 301 299 298 298 299
307 305 303 303 303 304 304 302 302 297 303 304 304 304 304 304 302 300 300 299 301 301 299 299 297 296 296 296 296 296 296 297 297 298 298 299 299 299 302 302 302 301 300
304 304 303 302 302 303 303 303 303 302 303 303 303 303 304 304 304 302 301 301 301 301 301 300 298 298 296 295 293 293 291 287 288 288 293 298 301 303 302 301 301 301 300
302 303 302 302 301 302 302 301 301 301 301 301 302 302 302 303 303 305 305 303 303 305 303 303 301 299 296 292 291 288 287 287 288 287 292 297 303 307 304 301 301 301 300
Wind_Speed
25 20 18 17 18 12 14 14 8 8 8 11 14 12 11 11 10 9 8 9 8 6 3 4 2 1 4 5 5 5 6 7 9 9 10 10 10 10 8 10 11 12 10
17 16 18 16 15 14 14 12 7 8 5 11 12 13 12 13 11 11 9 10 10 8 7 4 3 3 4 4 5 5 6 7 8 10 10 9 10 9 7 5 9 11 11
15 16 14 15 14 15 14 15 14 14 8 11 11 13 13 12 13 12 12 10 10 8 5 4 3 4 5 5 6 7 7 7 8 10 11 10 8 8 8 7 6 9 12
14 13 16 11 13 13 14 17 20 22 20 15 15 14 13 12 11 11 12 10 9 8 6 4 4 5 6 5 6 7 8 8 9 10 10 10 9 8 8 9 10 9 9
11 12 12 15 15 16 14 15 19 22 22 23 19 15 13 12 11 12 11 10 9 8 6 5 7 2 2 2 5 7 8 8 9 10 10 11 10 10 10 9 10 9 10
8 9 10 15 16 16 16 20 22 21 22 22 19 22 18 10 13 14 10 9 10 8 6 5 7 7 11 9 11 11 7 8 10 9 10 10 11 10 7 8 8 9 9
11 7 6 13 11 13 15 17 20 20 19 19 18 17 16 17 17 16 9 10 8 7 7 5 7 4 4 7 9 13 12 16 15 11 11 12 12 10 7 9 11 10 10
10 12 12 8 15 15 16 17 17 17 17 17 17 17 14 10 15 15 12 9 8 8 7 6 8 9 7 6 8 11 11 10 9 8 11 12 10 7 7 8 12 12 11
7 9 12 12 8 14 16 14 13 18 16 16 15 17 16 13 16 15 12 9 9 9 8 7 7 8 3 7 8 12 11 10 8 10 13 14 9 10 10 10 11 10 10
6 6 9 10 6 6 14 15 14 14 16 14 15 16 16 15 12 14 9 7 8 7 7 8 9 12 7 10 8 11 11 10 10 10 10 9 10 12 14 12 10 11 10
6 5 8 10 9 6 10 12 14 13 16 16 16 14 15 16 13 10 7 6 5 5 5 6 7 2 2 3 6 10 11 11 12 12 10 11 12 11 10 11 11 10 11
4 6 9 12 11 10 3 9 13 12 13 12 12 10 11 14 15 10 8 3 2 4 5 6 1 3 5 8 7 9 8 9 11 10 11 11 12 10 9 7 8 8 10
6 7 9 11 11 12 13 13 5 0 9 10 9 10 10 10 11 16 14 11 7 3 5 5 7 11 12 9 15 15 10 9 9 10 11 11 10 7 7 8 9 10 10
6 8 8 8 9 8 8 10 9 8 8 7 7 8 10 10 10 9 7 6 8 8 5 6 8 12 15 17 11 10 10 10 9 9 8 7 7 7 8 7 8 7 8
8 7 8 6 7 7 7 7 7 7 8 7 10 2 7 7 7 8 5 2 4 6 7 7 9 8 9 9 9 7 8 6 4 6 7 8 8 8 8 6 7 7 8
8 7 6 6 6 5 7 5 15 10 6 12 14 13 6 13 11 9 5 1 3 4 4 8 9 9 10 9 9 9 10 9 8 8 8 8 8 8 8 7 7 8 8
7 9 7 7 7 6 5 5 6 3 1 4 5 8 5 4 3 6 7 6 9 7 7 7 9 9 9 9 9 7 7 8 9 8 9 9 9 8 7 8 7 8 8
8 6 8 7 6 5 6 5 6 8 7 7 12 12 9 5 4 4 5 5 9 7 7 8 9 10 10 9 8 7 7 8 9 8 8 8 8 8 9 9 8 9 8
8 7 7 8 8 6 4 3 3 4 4 6 6 5 6 9 11 8 8 7 6 6 6 8 9 8 9 8 7 7 9 9 8 8 9 8 9 8 9 9 9 9 9
6 12 11 8 6 8 5 4 2 1 2 2 2 3 6 3 4 2 4 4 6 6 7 7 8 9 9 8 8 9 8 9 8 8 8 8 9 8 9 10 9 10 9
7 6 3 10 9 8 4 4 3 1 2 2 3 6 4 3 2 4 5 5 5 6 8 8 9 8 8 8 9 8 10 10 9 9 9 9 9 9 9 9 9 10 10
7 7 5 6 6 5 6 3 6 3 2 2 3 4 4 3 6 6 6 7 7 7 6 7 8 8 8 8 9 10 11 11 9 9 9 9 9 9 8 9 9 9 9
7 6 6 8 7 4 4 4 5 5 4 5 5 3 5 7 7 6 6 6 5 5 6 8 9 8 8 8 8 10 11 11 10 9 10 9 8 8 8 8 9 9 9
7 7 7 5 5 5 7 7 6 5 5 6 5 7 6 6 5 3 3 3 5 5 6 7 8 11 10 9 8 9 9 10 10 10 13 11 10 10 6 7 7 10 8
4 6 5 6 6 7 7 8 7 7 7 7 8 8 7 6 7 3 2 2 3 5 7 7 6 8 9 13 12 15 14 15 15 14 10 12 14 13 9 6 6 6 7
6 6 8 7 6 7 8 8 8 8 8 8 9 9 8 9 9 9 8 9 7 5 8 6 7 11 12 10 13 16 16 15 13 10 9 9 10 8 7 8 8 5 6
Wind_Direction
184 189 209 209 200 181 169 179 197 163 119 168 167 182 180 187 189 194 200 163 186 185 173 197 197 210 313 311 326 308 312 316 308 307 314 311 314 290 305 309 318 310 310
200 189 191 214 188 166 170 154 167 110 110 186 178 188 193 195 190 192 200 183 193 193 200 208 256 322 309 295 292 322 316 294 293 300 300 306 303 297 301 324 312 310 312
194 199 199 203 175 171 154 148 133 115 211 214 190 188 200 200 197 199 200 198 206 199 209 225 262 301 301 319 309 304 303 309 302 297 305 293 304 301 316 298 317 295 285
196 202 192 175 153 164 159 165 164 165 178 214 201 195 197 199 197 203 205 202 208 211 195 243 269 286 287 304 303 308 290 314 308 291 300 309 309 317 320 337 328 321 318
184 197 203 156 164 173 182 185 192 192 187 177 184 190 191 196 199 200 205 202 206 217 205 228 255 1 108 279 288 298 310 304 307 304 304 309 314 341 335 323 308 316 306
295 218 170 158 164 185 192 190 201 194 189 188 186 173 174 196 190 179 197 201 206 211 226 241 275 206 210 194 206 228 259 280 289 296 303 307 310 318 335 324 310 301 305
323 274 190 153 163 182 192 197 201 203 192 188 185 181 179 180 154 145 147 198 207 220 225 251 279 296 314 288 224 225 237 231 231 266 284 288 300 306 320 304 298 305 297
359 346 355 205 182 182 198 202 209 205 196 190 188 180 182 148 138 139 144 195 209 235 249 253 266 282 307 301 295 289 280 283 261 251 256 278 287 281 300 297 299 291 279
8 1 352 343 199 190 189 193 205 204 196 194 184 177 177 147 142 139 157 193 218 228 245 256 270 286 155 141 277 277 284 291 298 256 258 268 257 263 267 279 272 273 281
8 0 6 336 301 223 184 184 199 211 190 184 184 180 149 145 143 143 179 218 211 233 241 258 211 241 207 176 263 285 287 292 296 302 304 277 258 259 237 241 263 267 274
2 28 26 9 324 223 193 182 191 201 185 194 181 172 143 143 149 142 168 235 248 251 283 300 299 153 4 224 243 278 287 319 301 291 286 279 271 256 242 216 224 243 262
9 48 51 47 15 18 26 189 196 195 183 180 152 134 127 136 135 156 165 185 23 289 291 289 143 84 234 257 262 264 266 271 275 271 271 271 269 267 266 260 251 226 239
85 65 72 71 52 33 33 22 16 249 146 144 152 155 152 154 158 163 174 173 166 211 264 307 299 294 287 268 243 249 255 255 259 262 266 267 271 288 321 302 285 281 275
121 102 90 73 84 70 55 47 30 12 2 116 160 163 156 159 144 168 174 180 213 211 261 274 286 283 265 261 278 252 245 240 242 253 262 281 302 301 285 286 286 283 284
154 134 123 105 86 67 72 82 56 48 22 7 5 51 150 141 81 69 58 44 4 39 339 294 287 286 288 288 285 260 238 258 273 287 278 276 274 273 266 256 246 254 261
152 159 137 124 103 101 96 74 80 89 43 38 1 335 53 98 110 103 99 92 198 136 286 284 285 287 282 290 298 303 307 317 297 280 273 267 270 262 258 243 228 236 248
177 170 159 152 134 132 129 130 111 89 321 172 190 280 2 16 95 90 30 337 290 170 242 265 271 276 298 306 306 312 294 283 282 275 275 272 274 271 266 258 236 229 237
131 180 167 130 140 140 145 169 160 165 175 176 215 212 206 208 256 147 232 265 267 183 238 274 304 314 318 315 298 286 287 283 280 277 271 273 272 270 270 263 252 234 232
143 144 127 141 144 139 160 153 159 169 157 137 156 207 193 220 223 215 190 262 301 312 325 318 329 322 295 291 300 291 280 282 278 281 279 273 270 268 267 264 254 243 223
152 159 159 144 153 136 140 152 114 86 64 48 64 48 109 347 326 328 228 328 354 350 325 312 307 302 300 301 291 282 286 281 283 281 276 273 267 258 255 254 249 251 227
129 133 53 158 147 136 166 144 116 288 64 53 93 84 107 282 295 360 4 357 359 343 320 312 309 298 295 293 283 292 284 282 281 278 276 271 263 258 252 248 247 243 240
136 156 136 92 100 142 122 154 111 123 124 64 102 115 196 287 34 24 14 10 3 339 321 317 301 288 284 285 295 292 283 281 279 276 270 264 260 255 247 242 241 234 236
115 104 117 93 83 112 170 111 121 113 96 83 68 63 57 60 57 37 24 3 339 327 319 301 303 298 298 303 289 278 279 278 277 269 267 263 258 253 250 231 231 228 225
88 87 95 119 112 119 101 98 92 46 79 87 76 63 59 74 91 80 10 328 350 316 294 303 308 302 303 303 295 286 277 279 279 273 259 255 253 254 246 257 242 223 213
92 114 130 135 122 113 127 112 104 98 77 77 70 63 50 51 63 97 144 350 310 308 314 296 301 311 321 326 315 311 301 289 276 268 262 248 248 247 238 231 234 223 199
128 123 101 111 121 113 105 104 98 89 85 79 69 65 50 40 34 23 36 27 6 24 342 345 343 348 359 338 327 313 303 298 289 263 243 240 256 256 222 203 209 210 192